Location: Murphys Corner
(39.1062°N, 77.8244°W)
Time: 20:12:05
(UTC+00:00)

Envisat - Pass Details

Date: 05 February 2023
Orbit: 763 x 765 km, 98.2° (Epoch: 24 March)

Event Time Altitude Azimuth Distance (km) Brightness Sun altitude
Rises 09:29:48 0° 9° (N) 3,239 6.4 -32.2°
Reaches altitude 10° 09:32:07 10° 8° (N) 2,309 5.6 -31.8°
Enters shadow 09:32:25 12° 7° (N) 2,191 5.5 -31.7°
